Weather History for KSPD - September, 2013

Change the Weather History Date:

Saturday, September 7, 2013

  Actual Average Record
Temperature  
Mean Temperature 79 °F -  
Max Temperature 97 °F 84 °F 97 °F (2013)
Min Temperature 61 °F 55 °F 43 °F (2001)
Degree Days  
Heating Degree Days 0 1  
Month to date heating degree days 0 7  
Since 1 July heating degree days 1 14  
Cooling Degree Days 14 6  
Month to date cooling degree days 100 44  
Year to date cooling degree days 1264 945  
Growing Degree Days 29 (Base 50)    
Moisture  
Dew Point 47 °F    
Average Humidity 37    
Maximum Humidity 56    
Minimum Humidity 17    
Precipitation  
Precipitation 0.00 in 0.05 in 0.17 in (2003)
Month to date precipitation 0.00 0.35  
Year to date precipitation 9.74 14.09  
Sea Level Pressure  
Sea Level Pressure 29.90 in    
Wind  
Wind Speed 10 mph (SSW)    
Max Wind Speed 22 mph    
Max Gust Speed 29 mph    
T = Trace of Precipitation, MM = Missing Value Source: NWS Daily Summary

Daily Weather History Graph

Daily Weather History Graph

Search for Another Location

Airport or City:

Trip Planner

Search our weather history database for the weather conditions in past years. The results will help you decide how hot, cold, wet, or windy it might be!

Date:

Astronomy

Sep. 07, 2013 Rise Set
Actual Time 6:26 AM MDT 7:09 PM MDT
Civil Twilight 5:59 AM MDT 7:36 PM MDT
Nautical Twilight 5:28 AM MDT 8:07 PM MDT
Astronomical Twilight 4:56 AM MDT 8:39 PM MDT
Moon 8:38 AM MDT (9/7) 8:14 PM MDT (9/7)
Length of Visible Light 13h 36m
Length of Day
12h 43m
Waxing Crescent, 5% of the Moon is Illuminated
Sep 7
Waxing Crescent
Sep 12
First Quarter
Sep 19
Full
Sep 26
Last Quarter
Oct 4
New

Hourly Weather History & Observations

Time (MDT) Temp. Dew Point Humidity Pressure Visibility Wind Dir Wind Speed Gust Speed Precip Events Conditions
12:56 AM 72.0 °F 46.9 °F 41% 29.91 in - SSW 9.2 mph - N/A   Unknown
1:56 AM 66.9 °F 46.9 °F 49% 29.91 in - WSW 4.6 mph - N/A   Unknown
2:56 AM 66.9 °F 48.0 °F 51% 29.90 in - SW 8.1 mph - N/A   Unknown
3:56 AM 66.0 °F 48.0 °F 52% 29.90 in - SW 8.1 mph - N/A   Unknown
4:56 AM 64.0 °F 46.0 °F 52% 29.90 in - SW 6.9 mph - N/A   Unknown
5:56 AM 62.1 °F 46.0 °F 56% 29.91 in - SW 8.1 mph - N/A   Unknown
6:56 AM 63.0 °F 46.9 °F 56% 29.94 in - SW 4.6 mph - N/A   Unknown
7:56 AM 73.9 °F 48.0 °F 40% 29.94 in - SW 8.1 mph - N/A   Unknown
8:56 AM 82.9 °F 48.9 °F 31% 29.93 in - WSW 9.2 mph - N/A   Unknown
9:56 AM 88.0 °F 48.0 °F 25% 29.93 in - WSW 9.2 mph - N/A   Unknown
10:56 AM 91.9 °F 46.0 °F 21% 29.93 in - SSW 10.4 mph 20.7 mph N/A   Unknown
11:56 AM 93.9 °F 46.0 °F 19% 29.92 in - South 15.0 mph 26.5 mph N/A   Unknown
12:56 PM 93.9 °F 45.0 °F 18% 29.89 in - South 13.8 mph 25.3 mph N/A   Unknown
1:56 PM 95.0 °F 45.0 °F 18% 29.88 in - SSW 16.1 mph 23.0 mph N/A   Unknown
2:56 PM 96.1 °F 45.0 °F 17% 29.86 in - South 17.3 mph 20.7 mph N/A   Unknown
3:56 PM 95.0 °F 44.1 °F 17% 29.85 in - SSW 15.0 mph 21.9 mph N/A   Unknown
4:56 PM 93.9 °F 45.0 °F 18% 29.85 in - South 15.0 mph 23.0 mph N/A   Unknown
5:56 PM 91.9 °F 45.0 °F 20% 29.86 in - South 12.7 mph - N/A   Unknown
6:56 PM 86.0 °F 46.0 °F 25% 29.87 in - South 10.4 mph - N/A   Unknown
7:56 PM 77.0 °F 46.9 °F 34% 29.88 in - SSE 6.9 mph - N/A   Unknown
8:56 PM 73.0 °F 46.9 °F 39% 29.88 in - South 8.1 mph - N/A   Unknown
9:56 PM 73.9 °F 48.0 °F 40% 29.88 in - South 11.5 mph - N/A   Unknown
10:56 PM 75.0 °F 50.0 °F 41% 29.88 in - South 12.7 mph - N/A   Unknown
11:56 PM 72.0 °F 51.1 °F 48% 29.89 in - South 9.2 mph - N/A   Unknown